THOR ABLESTAR DEB, 410

Orbit data source: Space-Track

THOR ABLESTAR DEB, 410 is space debris in LEO originally from a launch on Thu, 29 Jun 1961 UTC launched from the Air Force Eastern Test Range (AFETR). Debris objects in space refer to the collection of defunct objects orbiting the Earth. Examples of debris include non-operational satellites, rocket bodies, and fragments generated from explosions, collisions, or faulty payload assembly.

Loading next visibility...
Identifier
410, 1961-015EK
Orbit
LEO
Last TLE update
4 hours ago
Origin
Manufacturer
Unknown
Mission
Spacecraft
Bus & Motor
Unknown
Mass
Unknown
Launch date (UTC)
1961-06-29 (64 years ago)
Launch vehicle
Unknown
Launch site
Air Force Eastern Test Range (AFETR)
Object type
Payload
Rocket body
Debris
Shape & HBR
Unknown
Radar Cross Section
Medium (>0.1 m² and <1 m²)

Expand to show TLE details & history

TLE from 4 hours ago
0 THOR ABLESTAR DEB
1   410U 61015EK  25189.17451576 -.00000018  00000-0  58007-4 0  9993
2   410  66.6924 142.3450 0021118 246.3314 131.0015 13.76536008213214
Epoch: 2025-07-08T04:11Z
TLE epoch observation values (Epoch: 2025-07-08T04:11:18.161Z)
Latitude
16.04159°
Longitude
160.22476°
Altitude
987.802 km
Speed
7.354 km/s
True Right ascension
09h 57m 41s
True Declination
15° 57' 12"
Sunlit
Object was in daylight at epoch
Visualization orbit readout
Latitude
26.05385°
Longitude
164.88818°
Altitude
990.786 km
Speed
7.353 km/s
Apparent Right ascension
09h 14m 14s
Apparent Declination
-4° 26' 45"
Sunlit
Object is in daylight
Visualization observer readout
Local Sidereal Time
19:49:21
Azimuth
326.094° NNW
Elevation
-49.691°
Doppler factor
1
Orbital elements
Apogee altitude
990.143 km
Perigee altitude
959.088 km
Semi-major axis
7,352.753 km
Eccentricity
0.00211
Inclination
66.6924°
RAAN
142.345°
Arg. of periapsis
246.3314°
True anomaly
Unknown
Mean anomaly
131.0015°
Eccentric anomaly
Unknown
Mean motion
3.44245 °/min
Orbital period
104.58 mins
BSTAR
0.000058007
Loading maneuver chart data...
Loading SW <> Apogee altitude chart data...

THOR ABLESTAR DEB Visibility forecast

Observer location: undefined°, undefined°

Span
Click to sort rows by Start time (UTC) header in descending order
Start Az.
Max El. time (UTC)
Max El. Az.
Max El.
End time (UTC)
End Az.
11 mins2025-07-08 08:09:45.534Z325.202° NNW2025-07-08 08:15:45.534Z226.075° WSW42.751°2025-07-08 08:20:45.534Z164.564° S
10 mins2025-07-08 21:39:45.534Z167.061° S2025-07-08 21:43:45.534Z116.969° SE30.664°2025-07-08 21:49:45.534Z45.885° ENE
10 mins2025-07-08 23:26:45.534Z243.583° WSW2025-07-08 23:31:45.534Z310.542° NW32.842°2025-07-08 23:36:45.534Z12.905° NNE
10 mins2025-07-09 06:48:45.534Z348.083° N2025-07-09 06:53:45.534Z57.227° ENE33.447°2025-07-09 06:58:45.534Z119.4° SE
|